NJUST-1 (42722 NORAD) Tracking and Keplerian Element Data

This shows tracking and keplerian element data for the satellite.

Feedback or suggestion? Click here.




ElementValue
Catalog42722
NameNJUST-1
Epoch Orbit8440
Epoch Day319.84350306
Epoch Year2018
RAAN306.5981
Inclination51.6361
Eccentricity0.0006564
Argument of Perigee80.4251
Mean Anonmoly348.5849
Mean Motion15.73584663
Decay Rate0.00029037
L11 42722U 98067MB 18319.84350306 .00029037 00000-0 20663-3 0 9999
L22 42722 51.6361 306.5981 0006564 80.4251 348.5849 15.73584663 84409

Live tracking and technical data element details for NJUST-1 (NORAD 42722). NJUST-1 can be tracked NOW for your location showing map with azimuth and elevation plus other details from your city location.

Track the satellite on the map from your city or location and see movement details for azimuth, elevation, latitude, longitude, range, height, and movement on the map or in text.







IsCatalogInMostPopularTable: catalog: 42722, numindb: 153
Update: records affected: 1



GetName: 42722 NJUST-1

Hit Count: updated at: Fri, 16 Nov 2018 06:13:08 GMT